Location: Pallagorio
(39.3000°N, 16.9000°E)
Time: 20:24:49
(UTC+00:00)

Cosmos 1680 Rocket - Pass Details

Date: 24 January 2021
Orbit: 761 x 780 km, 74.1° (Epoch: 03 March)

Event Time Altitude Azimuth Distance (km) Brightness Sun altitude
Rises 17:36:14 0° 339° (NNW) 3,240 6.9 -17.9°
Reaches altitude 10° 17:38:37 10° 338° (NNW) 2,307 6.1 -18.3°
Maximum altitude 17:43:50 76° 254° (WSW) 790 3.6 -19.3°
Drops below altitude 10° 17:49:00 10° 169° (S) 2,284 5.9 -20.3°
Sets 17:51:21 0° 168° (SSE) 3,205 6.7 -20.8°
